Location: Larrial
(48.2758°N, 4.5331°W)
Time: 16:57:15
(UTC+00:00)

AAUSAT CUBESAT 2 - Pass Details

Date: 02 December 2021
Orbit: 572 x 586 km, 97.5° (Epoch: 16 January)

Event Time Altitude Azimuth Distance (km) Brightness Sun altitude
Rises 06:53:08 0° 358° (N) 2,796 ? -9.1°
Reaches altitude 10° 06:55:54 10° 338° (NNW) 1,894 ? -8.6°
Maximum altitude 06:58:31 17° 298° (WNW) 1,505 ? -8.2°
Drops below altitude 10° 07:01:08 10° 258° (WSW) 1,891 ? -7.9°
Sets 07:03:54 0° 238° (WSW) 2,787 ? -7.4°
